Year,Month,Day,Hour,Minute,Value (Times are PST for temperature in C)
2017,09,05,00,00,20.20
2017,09,05,00,01,20.20
2017,09,05,00,02,20.20
2017,09,05,00,03,20.30
2017,09,05,00,04,20.30
2017,09,05,00,05,20.30
2017,09,05,00,06,20.30
2017,09,05,00,07,20.30
2017,09,05,00,08,20.30
2017,09,05,00,09,20.30
2017,09,05,00,10,20.30
2017,09,05,00,11,20.30
2017,09,05,00,12,20.30
2017,09,05,00,13,20.30
2017,09,05,00,14,20.30
2017,09,05,00,15,20.20
2017,09,05,00,16,20.20
2017,09,05,00,17,20.20
2017,09,05,00,18,20.20
2017,09,05,00,19,20.20
2017,09,05,00,20,20.20
2017,09,05,00,21,20.20
2017,09,05,00,22,20.20
2017,09,05,00,23,20.20
2017,09,05,00,24,20.20
2017,09,05,00,25,20.20
2017,09,05,00,26,20.20
2017,09,05,00,27,20.20
2017,09,05,00,28,20.20
2017,09,05,00,29,20.20
2017,09,05,00,30,20.20
2017,09,05,00,31,20.20
2017,09,05,00,32,20.10
2017,09,05,00,33,20.10
2017,09,05,00,34,20.10
2017,09,05,00,35,20.10
2017,09,05,00,36,20.10
2017,09,05,00,37,20.10
2017,09,05,00,38,20.20
2017,09,05,00,39,20.20
2017,09,05,00,40,20.20
2017,09,05,00,41,20.20
2017,09,05,00,42,20.20
2017,09,05,00,43,20.20
2017,09,05,00,44,20.20
2017,09,05,00,45,20.20
2017,09,05,00,46,20.20
2017,09,05,00,47,20.20
2017,09,05,00,48,20.30
2017,09,05,00,49,20.30
2017,09,05,00,50,20.20
2017,09,05,00,51,20.20
2017,09,05,00,52,20.20
2017,09,05,00,53,20.20
2017,09,05,00,54,20.20
2017,09,05,00,55,20.20
2017,09,05,00,56,20.20
2017,09,05,00,57,20.20
2017,09,05,00,58,20.20
2017,09,05,00,59,20.20
2017,09,05,01,00,20.20
2017,09,05,01,01,20.20
2017,09,05,01,02,20.20
2017,09,05,01,03,20.20
2017,09,05,01,04,20.20
2017,09,05,01,05,20.20
2017,09,05,01,06,20.20
2017,09,05,01,07,20.20
2017,09,05,01,08,20.20
2017,09,05,01,09,20.20
2017,09,05,01,10,20.20
2017,09,05,01,11,20.20
2017,09,05,01,12,20.20
2017,09,05,01,13,20.20
2017,09,05,01,14,20.20
2017,09,05,01,15,20.20
2017,09,05,01,16,20.20
2017,09,05,01,17,20.20
2017,09,05,01,18,20.20
2017,09,05,01,19,20.20
2017,09,05,01,20,20.20
2017,09,05,01,21,20.20
2017,09,05,01,22,20.20
2017,09,05,01,23,20.20
2017,09,05,01,24,20.20
2017,09,05,01,25,20.20
2017,09,05,01,26,20.20
2017,09,05,01,27,20.10
2017,09,05,01,28,20.10
2017,09,05,01,29,20.10
2017,09,05,01,30,20.10
2017,09,05,01,31,20.10
2017,09,05,01,32,20.10
2017,09,05,01,33,20.10
2017,09,05,01,34,20.10
2017,09,05,01,35,20.10
2017,09,05,01,36,20.10
2017,09,05,01,37,20.10
2017,09,05,01,38,20.10
2017,09,05,01,39,20.10
2017,09,05,01,40,20.10
2017,09,05,01,41,20.10
2017,09,05,01,42,20.20
2017,09,05,01,43,20.20
2017,09,05,01,44,20.20
2017,09,05,01,45,20.20
2017,09,05,01,46,20.20
2017,09,05,01,47,20.20
2017,09,05,01,48,20.20
2017,09,05,01,49,20.20
2017,09,05,01,50,20.20
2017,09,05,01,51,20.20
2017,09,05,01,52,20.20
2017,09,05,01,53,20.20
2017,09,05,01,54,20.10
2017,09,05,01,55,20.10
2017,09,05,01,56,20.20
2017,09,05,01,57,20.20
2017,09,05,01,58,20.20
2017,09,05,01,59,20.20
2017,09,05,02,00,20.20
2017,09,05,02,01,20.30
2017,09,05,02,02,20.30
2017,09,05,02,03,20.30
2017,09,05,02,04,20.30
2017,09,05,02,05,20.30
2017,09,05,02,06,20.30
2017,09,05,02,07,20.30
2017,09,05,02,08,20.30
2017,09,05,02,09,20.30
2017,09,05,02,10,20.30
2017,09,05,02,11,20.30
2017,09,05,02,12,20.30
2017,09,05,02,13,20.30
2017,09,05,02,14,20.30
2017,09,05,02,15,20.30
2017,09,05,02,16,20.30
2017,09,05,02,17,20.40
2017,09,05,02,18,20.40
2017,09,05,02,19,20.40
2017,09,05,02,20,20.40
2017,09,05,02,21,20.40
2017,09,05,02,22,20.50
2017,09,05,02,23,20.50
2017,09,05,02,24,20.50
2017,09,05,02,25,20.60
2017,09,05,02,26,20.60
2017,09,05,02,27,20.50
2017,09,05,02,28,20.50
2017,09,05,02,29,20.50
2017,09,05,02,30,20.50
2017,09,05,02,31,20.50
2017,09,05,02,32,20.50
2017,09,05,02,33,20.50
2017,09,05,02,34,20.50
2017,09,05,02,35,20.50
2017,09,05,02,36,20.50
2017,09,05,02,37,20.50
2017,09,05,02,38,20.50
2017,09,05,02,39,20.50
2017,09,05,02,40,20.50
2017,09,05,02,41,20.50
2017,09,05,02,42,20.50
2017,09,05,02,43,20.50
2017,09,05,02,44,20.50
2017,09,05,02,45,20.50
2017,09,05,02,46,20.40
2017,09,05,02,47,20.40
2017,09,05,02,48,20.40
2017,09,05,02,49,20.40
2017,09,05,02,50,20.40
2017,09,05,02,51,20.40
2017,09,05,02,52,20.40
2017,09,05,02,53,20.40
2017,09,05,02,54,20.40
2017,09,05,02,55,20.50
2017,09,05,02,56,20.50
2017,09,05,02,57,20.40
2017,09,05,02,58,20.50
2017,09,05,02,59,20.50
2017,09,05,03,00,20.40
2017,09,05,03,01,20.40
2017,09,05,03,02,20.40
2017,09,05,03,03,20.40
2017,09,05,03,04,20.40
2017,09,05,03,05,20.40
2017,09,05,03,06,20.40
2017,09,05,03,07,20.40
2017,09,05,03,08,20.40
2017,09,05,03,09,20.40
2017,09,05,03,10,20.40
2017,09,05,03,11,20.50
2017,09,05,03,12,20.40
2017,09,05,03,13,20.40
2017,09,05,03,14,20.40
2017,09,05,03,15,20.40
2017,09,05,03,16,20.50
2017,09,05,03,17,20.50
2017,09,05,03,18,20.50
2017,09,05,03,19,20.50
2017,09,05,03,20,20.50
2017,09,05,03,21,20.50
2017,09,05,03,22,20.50
2017,09,05,03,23,20.50
2017,09,05,03,24,20.50
2017,09,05,03,25,20.60
2017,09,05,03,26,20.60
2017,09,05,03,27,20.60
2017,09,05,03,28,20.60
2017,09,05,03,29,20.60
2017,09,05,03,30,20.60
2017,09,05,03,31,20.60
2017,09,05,03,32,20.60
2017,09,05,03,33,20.60
2017,09,05,03,34,20.60
2017,09,05,03,35,20.60
2017,09,05,03,36,20.60
2017,09,05,03,37,20.60
2017,09,05,03,38,20.60
2017,09,05,03,39,20.70
2017,09,05,03,40,20.70
2017,09,05,03,41,20.70
2017,09,05,03,42,20.70
2017,09,05,03,43,20.70
2017,09,05,03,44,20.70
2017,09,05,03,45,20.70
2017,09,05,03,46,20.70
2017,09,05,03,47,20.60
2017,09,05,03,48,20.60
2017,09,05,03,49,20.60
2017,09,05,03,50,20.60
2017,09,05,03,51,20.50
2017,09,05,03,52,20.50
2017,09,05,03,53,20.50
2017,09,05,03,54,20.50
2017,09,05,03,55,20.60
2017,09,05,03,56,20.60
2017,09,05,03,57,20.60
2017,09,05,03,58,20.60
2017,09,05,03,59,20.60
2017,09,05,04,00,20.50
2017,09,05,04,01,20.50
2017,09,05,04,02,20.50
2017,09,05,04,03,20.60
2017,09,05,04,04,20.60
2017,09,05,04,08,20.60
2017,09,05,04,09,20.60
2017,09,05,04,10,20.60
2017,09,05,04,11,20.70
2017,09,05,04,12,20.70
2017,09,05,04,13,20.80
2017,09,05,04,14,20.90
2017,09,05,04,15,21.00
2017,09,05,04,16,21.00
2017,09,05,04,17,21.10
2017,09,05,04,18,21.10
2017,09,05,04,19,21.10
2017,09,05,04,20,21.10
2017,09,05,04,21,21.10
2017,09,05,04,22,21.10
2017,09,05,04,23,21.10
2017,09,05,04,24,21.10
2017,09,05,04,25,21.10
2017,09,05,04,26,21.10
2017,09,05,04,27,21.10
2017,09,05,04,28,21.10
2017,09,05,04,29,21.10
2017,09,05,04,30,21.10
2017,09,05,04,31,21.10
2017,09,05,04,32,21.10
2017,09,05,04,33,21.10
2017,09,05,04,34,21.10
2017,09,05,04,35,21.10
2017,09,05,04,36,21.10
2017,09,05,04,37,21.10
2017,09,05,04,38,21.10
2017,09,05,04,39,21.10
2017,09,05,04,40,21.10
2017,09,05,04,41,21.10
2017,09,05,04,42,21.10
2017,09,05,04,43,21.10
2017,09,05,04,44,21.10
2017,09,05,04,45,21.20
2017,09,05,04,46,21.20
2017,09,05,04,47,21.20
2017,09,05,04,48,21.20
2017,09,05,04,49,21.20
2017,09,05,04,50,21.20
2017,09,05,04,51,21.20
2017,09,05,04,52,21.20
2017,09,05,04,53,21.20
2017,09,05,04,54,21.20
2017,09,05,04,55,21.20
2017,09,05,04,56,21.20
2017,09,05,04,57,21.20
2017,09,05,04,58,21.20
2017,09,05,04,59,21.20
2017,09,05,05,00,21.20
2017,09,05,05,01,21.20
2017,09,05,05,02,21.20
2017,09,05,05,03,21.20
2017,09,05,05,04,21.30
2017,09,05,05,05,21.30
2017,09,05,05,06,21.30
2017,09,05,05,07,21.30
2017,09,05,05,08,21.30
2017,09,05,05,09,21.30
2017,09,05,05,10,21.30
2017,09,05,05,11,21.30
2017,09,05,05,12,21.30
2017,09,05,05,13,21.30
2017,09,05,05,14,21.30
2017,09,05,05,15,21.30
2017,09,05,05,16,21.30
2017,09,05,05,17,21.30
2017,09,05,05,18,21.30
2017,09,05,05,19,21.30
2017,09,05,05,20,21.30
2017,09,05,05,21,21.30
2017,09,05,05,22,21.30
2017,09,05,05,23,21.20
2017,09,05,05,24,21.20
2017,09,05,05,25,21.20
2017,09,05,05,26,21.20
2017,09,05,05,27,21.20
2017,09,05,05,28,21.20
2017,09,05,05,29,21.20
2017,09,05,05,30,21.20
2017,09,05,05,31,21.20
2017,09,05,05,32,21.10
2017,09,05,05,33,21.10
2017,09,05,05,34,21.10
2017,09,05,05,35,21.10
2017,09,05,05,36,21.10
2017,09,05,05,37,21.10
2017,09,05,05,38,21.20
2017,09,05,05,39,21.20
2017,09,05,05,40,21.20
2017,09,05,05,41,21.20
2017,09,05,05,42,21.20
2017,09,05,05,43,21.20
2017,09,05,05,44,21.30
2017,09,05,05,45,21.30
2017,09,05,05,46,21.30
2017,09,05,05,47,21.30
2017,09,05,05,48,21.30
2017,09,05,05,49,21.30
2017,09,05,05,50,21.30
2017,09,05,05,51,21.30
2017,09,05,05,52,21.30
2017,09,05,05,53,21.30
2017,09,05,05,54,21.30
2017,09,05,05,55,21.30
2017,09,05,05,56,21.30
2017,09,05,05,57,21.30
2017,09,05,05,58,21.40
2017,09,05,05,59,21.40
2017,09,05,06,00,21.40
2017,09,05,06,01,21.40
2017,09,05,06,02,21.40
2017,09,05,06,03,21.40
2017,09,05,06,04,21.40
2017,09,05,06,05,21.50
2017,09,05,06,06,21.50
2017,09,05,06,07,21.50
2017,09,05,06,08,21.60
2017,09,05,06,09,21.60
2017,09,05,06,10,21.60
2017,09,05,06,11,21.70
2017,09,05,06,12,21.70
2017,09,05,06,13,21.70
2017,09,05,06,14,21.80
2017,09,05,06,15,21.80
2017,09,05,06,16,21.80
2017,09,05,06,17,21.80
2017,09,05,06,18,21.80
2017,09,05,06,19,21.90
2017,09,05,06,20,21.90
2017,09,05,06,21,21.90
2017,09,05,06,22,22.00
2017,09,05,06,23,22.00
2017,09,05,06,24,22.10
2017,09,05,06,25,22.20
2017,09,05,06,26,22.20
2017,09,05,06,27,22.30
2017,09,05,06,28,22.40
2017,09,05,06,29,22.40
2017,09,05,06,30,22.50
2017,09,05,06,31,22.60
2017,09,05,06,32,22.60
2017,09,05,06,33,22.70
2017,09,05,06,34,22.70
2017,09,05,06,35,22.80
2017,09,05,06,36,22.80
2017,09,05,06,37,22.80
2017,09,05,06,38,22.90
2017,09,05,06,39,22.90
2017,09,05,06,40,22.90
2017,09,05,06,41,23.00
2017,09,05,06,42,23.00
2017,09,05,06,43,23.10
2017,09,05,06,44,23.10
2017,09,05,06,45,23.20
2017,09,05,06,46,23.20
2017,09,05,06,47,23.30
2017,09,05,06,48,23.30
2017,09,05,06,49,23.30
2017,09,05,06,50,23.40
2017,09,05,06,51,23.40
2017,09,05,06,52,23.50
2017,09,05,06,53,23.50
2017,09,05,06,54,23.50
2017,09,05,06,55,23.60
2017,09,05,06,56,23.60
2017,09,05,06,57,23.60
2017,09,05,06,58,23.60
2017,09,05,06,59,23.70
2017,09,05,07,00,23.70
2017,09,05,07,01,23.70
2017,09,05,07,02,23.70
2017,09,05,07,03,23.80
2017,09,05,07,04,23.80
2017,09,05,07,05,23.80
2017,09,05,07,06,23.80
2017,09,05,07,07,23.80
2017,09,05,07,08,23.80
2017,09,05,07,09,23.90
2017,09,05,07,10,23.90
2017,09,05,07,11,23.90
2017,09,05,07,12,23.90
2017,09,05,07,13,23.90
2017,09,05,07,14,23.90
2017,09,05,07,15,23.90
2017,09,05,07,16,23.90
2017,09,05,07,17,23.90
2017,09,05,07,18,23.90
2017,09,05,07,19,23.90
2017,09,05,07,20,23.90
2017,09,05,07,21,23.90
2017,09,05,07,22,24.00
2017,09,05,07,23,24.00
2017,09,05,07,24,24.10
2017,09,05,07,25,24.10
2017,09,05,07,26,24.10
2017,09,05,07,27,24.20
2017,09,05,07,28,24.20
2017,09,05,07,29,24.20
2017,09,05,07,30,24.20
2017,09,05,07,31,24.20
2017,09,05,07,32,24.20
2017,09,05,07,33,24.30
2017,09,05,07,34,24.30
2017,09,05,07,35,24.30
2017,09,05,07,36,24.30
2017,09,05,07,37,24.40
2017,09,05,07,38,24.40
2017,09,05,07,39,24.40
2017,09,05,07,40,24.40
2017,09,05,07,41,24.40
2017,09,05,07,42,24.40
2017,09,05,07,43,24.50
2017,09,05,07,44,24.50
2017,09,05,07,45,24.50
2017,09,05,07,46,24.50
2017,09,05,07,47,24.60
2017,09,05,07,48,24.60
2017,09,05,07,49,24.60
2017,09,05,07,50,24.60
2017,09,05,07,51,24.60
2017,09,05,07,52,24.60
2017,09,05,07,53,24.70
2017,09,05,07,54,24.70
2017,09,05,07,55,24.70
2017,09,05,07,56,24.70
2017,09,05,07,57,24.70
2017,09,05,07,58,24.70
2017,09,05,07,59,24.80
2017,09,05,08,00,24.80
2017,09,05,08,01,24.80
2017,09,05,08,02,24.80
2017,09,05,08,03,24.80
2017,09,05,08,04,24.80
2017,09,05,08,05,24.80
2017,09,05,08,06,24.80
2017,09,05,08,07,24.70
2017,09,05,08,08,24.70
2017,09,05,08,09,24.60
2017,09,05,08,10,24.60
2017,09,05,08,11,24.60
2017,09,05,08,12,24.60
2017,09,05,08,13,24.60
2017,09,05,08,14,24.60
2017,09,05,08,15,24.60
2017,09,05,08,16,24.60
2017,09,05,08,17,24.60
2017,09,05,08,18,24.60
2017,09,05,08,19,24.60
2017,09,05,08,20,24.60
2017,09,05,08,21,24.60
2017,09,05,08,22,24.60
2017,09,05,08,23,24.60
2017,09,05,08,24,24.50
2017,09,05,08,25,24.50
2017,09,05,08,26,24.60
2017,09,05,08,27,24.50
2017,09,05,08,28,24.50
2017,09,05,08,29,24.50
2017,09,05,08,30,24.50
2017,09,05,08,31,24.60
2017,09,05,08,32,24.50
2017,09,05,08,33,24.50
2017,09,05,08,34,24.50
2017,09,05,08,35,24.50
2017,09,05,08,36,24.50
2017,09,05,08,37,24.50
2017,09,05,08,38,24.50
2017,09,05,08,39,24.60
2017,09,05,08,40,24.60
2017,09,05,08,41,24.60
2017,09,05,08,42,24.60
2017,09,05,08,43,24.70
2017,09,05,08,44,24.70
2017,09,05,08,45,24.70
2017,09,05,08,46,24.70
2017,09,05,08,47,24.70
2017,09,05,08,48,24.70
2017,09,05,08,49,24.70
2017,09,05,08,50,24.70
2017,09,05,08,51,24.70
2017,09,05,08,52,24.70
2017,09,05,08,53,24.70
2017,09,05,08,54,24.70
2017,09,05,08,55,24.80
2017,09,05,08,56,24.90
2017,09,05,08,57,25.00
2017,09,05,08,58,25.10
2017,09,05,08,59,25.20
2017,09,05,09,00,25.30
2017,09,05,09,01,25.40
2017,09,05,09,02,25.40
2017,09,05,09,03,25.40
2017,09,05,09,04,25.40
2017,09,05,09,05,25.40
2017,09,05,09,06,25.40
2017,09,05,09,07,25.50
2017,09,05,09,08,25.50
2017,09,05,09,09,25.50
2017,09,05,09,10,25.50
2017,09,05,09,11,25.50
2017,09,05,09,12,25.60
2017,09,05,09,13,25.60
2017,09,05,09,14,25.60
2017,09,05,09,15,25.60
2017,09,05,09,16,25.60
2017,09,05,09,17,25.60
2017,09,05,09,18,25.50
2017,09,05,09,19,25.50
2017,09,05,09,20,25.40
2017,09,05,09,21,25.40
2017,09,05,09,22,25.50
2017,09,05,09,23,25.50
2017,09,05,09,24,25.50
2017,09,05,09,25,25.50
2017,09,05,09,26,25.50
2017,09,05,09,27,25.50
2017,09,05,09,28,25.50
2017,09,05,09,29,25.40
2017,09,05,09,30,25.40
2017,09,05,09,31,25.40
2017,09,05,09,32,25.40
2017,09,05,09,33,25.40
2017,09,05,09,34,25.40
2017,09,05,09,35,25.40
2017,09,05,09,36,25.40
2017,09,05,09,37,25.50
2017,09,05,09,38,25.50
2017,09,05,09,39,25.50
2017,09,05,09,40,25.50
2017,09,05,09,41,25.50
2017,09,05,09,42,25.50
2017,09,05,09,43,25.50
2017,09,05,09,44,25.60
2017,09,05,09,45,25.60
2017,09,05,09,46,25.60
2017,09,05,09,47,25.60
2017,09,05,09,48,25.60
2017,09,05,09,49,25.60
2017,09,05,09,50,25.60
2017,09,05,09,51,25.50
2017,09,05,09,52,25.50
2017,09,05,09,53,25.50
2017,09,05,09,54,25.50
2017,09,05,09,55,25.50
2017,09,05,09,56,25.50
2017,09,05,09,57,25.50
2017,09,05,09,58,25.50
2017,09,05,09,59,25.50
2017,09,05,10,00,25.50
2017,09,05,10,01,25.50
2017,09,05,10,02,25.60
2017,09,05,10,03,25.70
2017,09,05,10,04,25.70
2017,09,05,10,05,25.80
2017,09,05,10,06,25.80
2017,09,05,10,07,25.80
2017,09,05,10,08,25.80
2017,09,05,10,09,25.80
2017,09,05,10,10,25.80
2017,09,05,10,11,25.70
2017,09,05,10,12,25.60
2017,09,05,10,13,25.50
2017,09,05,10,14,25.50
2017,09,05,10,15,25.40
2017,09,05,10,16,25.40
2017,09,05,10,17,25.40
2017,09,05,10,18,25.40
2017,09,05,10,19,25.40
2017,09,05,10,20,25.50
2017,09,05,10,21,25.60
2017,09,05,10,22,25.70
2017,09,05,10,23,25.70
2017,09,05,10,24,25.80
2017,09,05,10,25,25.80
2017,09,05,10,26,25.80
2017,09,05,10,27,25.80
2017,09,05,10,28,25.80
2017,09,05,10,29,25.80
2017,09,05,10,30,25.80
2017,09,05,10,31,25.80
2017,09,05,10,32,25.80
2017,09,05,10,33,25.80
2017,09,05,10,34,25.80
2017,09,05,10,35,25.80
2017,09,05,10,36,25.90
2017,09,05,10,37,25.90
2017,09,05,10,38,25.90
2017,09,05,10,39,25.90
2017,09,05,10,40,25.90
2017,09,05,10,41,26.00
2017,09,05,10,42,26.00
2017,09,05,10,43,26.00
2017,09,05,10,44,26.10
2017,09,05,10,45,26.10
2017,09,05,10,46,26.20
2017,09,05,10,47,26.20
2017,09,05,10,48,26.20
2017,09,05,10,49,26.30
2017,09,05,10,50,26.30
2017,09,05,10,51,26.30
2017,09,05,10,52,26.40
2017,09,05,10,53,26.40
2017,09,05,10,54,26.40
2017,09,05,10,55,26.40
2017,09,05,10,56,26.40
2017,09,05,10,57,26.50
2017,09,05,10,58,26.50
2017,09,05,10,59,26.50
2017,09,05,11,00,26.60
2017,09,05,11,01,26.60
2017,09,05,11,02,26.70
2017,09,05,11,03,26.70
2017,09,05,11,04,26.70
2017,09,05,11,05,26.80
2017,09,05,11,06,26.80
2017,09,05,11,07,26.80
2017,09,05,11,08,26.80
2017,09,05,11,09,26.80
2017,09,05,11,10,26.80
2017,09,05,11,11,26.90
2017,09,05,11,12,26.90
2017,09,05,11,13,26.80
2017,09,05,11,14,26.80
2017,09,05,11,15,26.80
2017,09,05,11,16,26.80
2017,09,05,11,17,26.90
2017,09,05,11,18,26.90
2017,09,05,11,19,27.00
2017,09,05,11,20,27.00
2017,09,05,11,21,27.10
2017,09,05,11,22,27.10
2017,09,05,11,23,27.10
2017,09,05,11,24,27.10
2017,09,05,11,25,27.10
2017,09,05,11,26,27.20
2017,09,05,11,27,27.20
2017,09,05,11,28,27.20
2017,09,05,11,29,27.20
2017,09,05,11,30,27.30
2017,09,05,11,31,27.30
2017,09,05,11,32,27.30
2017,09,05,11,33,27.30
2017,09,05,11,34,27.40
2017,09,05,11,35,27.40
2017,09,05,11,36,27.40
2017,09,05,11,37,27.40
2017,09,05,11,38,27.40
2017,09,05,11,39,27.40
2017,09,05,11,40,27.40
2017,09,05,11,41,27.40
2017,09,05,11,42,27.40
2017,09,05,11,43,27.40
2017,09,05,11,44,27.40
2017,09,05,11,45,27.40
2017,09,05,11,46,27.40
2017,09,05,11,47,27.40
2017,09,05,11,48,27.40
2017,09,05,11,49,27.40
2017,09,05,11,50,27.40
2017,09,05,11,51,27.50
2017,09,05,11,52,27.50
2017,09,05,11,53,27.50
2017,09,05,11,54,27.60
2017,09,05,11,55,27.60
2017,09,05,11,56,27.60
2017,09,05,11,57,27.60
2017,09,05,11,58,27.60
2017,09,05,11,59,27.60
2017,09,05,12,00,27.60
2017,09,05,12,01,27.60
2017,09,05,12,02,27.60
2017,09,05,12,03,27.70
2017,09,05,12,04,27.70
2017,09,05,12,05,27.70
2017,09,05,12,06,27.70
2017,09,05,12,07,27.70
2017,09,05,12,08,27.80
2017,09,05,12,09,27.80
2017,09,05,12,10,27.80
2017,09,05,12,11,27.80
2017,09,05,12,12,27.80
2017,09,05,12,13,27.80
2017,09,05,12,14,27.80
2017,09,05,12,15,27.90
2017,09,05,12,16,27.90
2017,09,05,12,17,27.90
2017,09,05,12,18,27.90
2017,09,05,12,19,28.00
2017,09,05,12,20,28.00
2017,09,05,12,21,28.10
2017,09,05,12,22,28.10
2017,09,05,12,23,28.10
2017,09,05,12,24,28.10
2017,09,05,12,25,28.20
2017,09,05,12,26,28.20
2017,09,05,12,27,28.20
2017,09,05,12,28,28.20
2017,09,05,12,29,28.20
2017,09,05,12,30,28.30
2017,09,05,12,31,28.30
2017,09,05,12,32,28.30
2017,09,05,12,33,28.30
2017,09,05,12,34,28.40
2017,09,05,12,35,28.40
2017,09,05,12,36,28.40
2017,09,05,12,37,28.40
2017,09,05,12,38,28.40
2017,09,05,12,39,28.40
2017,09,05,12,40,28.40
2017,09,05,12,41,28.30
2017,09,05,12,42,28.30
2017,09,05,12,43,28.30
2017,09,05,12,44,28.30
2017,09,05,12,45,28.30
2017,09,05,12,46,28.30
2017,09,05,12,47,28.30
2017,09,05,12,48,28.30
2017,09,05,12,49,28.20
2017,09,05,12,50,28.20
2017,09,05,12,51,28.20
2017,09,05,12,52,28.20
2017,09,05,12,53,28.20
2017,09,05,12,54,28.20
2017,09,05,12,55,28.20
2017,09,05,12,56,28.20
2017,09,05,12,57,28.20
2017,09,05,12,58,28.20
2017,09,05,12,59,28.20
2017,09,05,13,00,28.20
2017,09,05,13,01,28.20
2017,09,05,13,02,28.20
2017,09,05,13,03,28.20
2017,09,05,13,04,28.20
2017,09,05,13,05,28.10
2017,09,05,13,06,28.10
2017,09,05,13,07,28.10
2017,09,05,13,08,28.10
2017,09,05,13,09,28.10
2017,09,05,13,10,28.10
2017,09,05,13,11,28.10
2017,09,05,13,12,28.00
2017,09,05,13,13,28.00
2017,09,05,13,14,28.00
2017,09,05,13,15,27.90
2017,09,05,13,16,27.90
2017,09,05,13,17,27.90
2017,09,05,13,18,27.90
2017,09,05,13,19,27.90
2017,09,05,13,20,28.00
2017,09,05,13,21,28.00
2017,09,05,13,22,28.00
2017,09,05,13,23,28.00
2017,09,05,13,24,28.00
2017,09,05,13,25,28.10
2017,09,05,13,26,28.10
2017,09,05,13,27,28.10
2017,09,05,13,28,28.10
2017,09,05,13,29,28.10
2017,09,05,13,30,28.10
2017,09,05,13,31,28.10
2017,09,05,13,32,28.10
2017,09,05,13,33,28.10
2017,09,05,13,34,28.10
2017,09,05,13,35,28.10
2017,09,05,13,36,28.10
2017,09,05,13,37,28.10
2017,09,05,13,38,28.20
2017,09,05,13,39,28.10
2017,09,05,13,40,28.10
2017,09,05,13,41,28.10
2017,09,05,13,42,28.10
2017,09,05,13,43,28.10
2017,09,05,13,44,28.10
2017,09,05,13,45,28.10
2017,09,05,13,46,28.10
2017,09,05,13,47,28.10
2017,09,05,13,48,28.10
2017,09,05,13,49,28.20
2017,09,05,13,50,28.20
2017,09,05,13,51,28.20
2017,09,05,13,52,28.20
2017,09,05,13,53,28.20
2017,09,05,13,54,28.30
2017,09,05,13,55,28.30
2017,09,05,13,56,28.30
2017,09,05,13,57,28.30
2017,09,05,13,58,28.30
2017,09,05,13,59,28.30
2017,09,05,14,00,28.30
2017,09,05,14,01,28.30
2017,09,05,14,02,28.30
2017,09,05,14,03,28.30
2017,09,05,14,04,28.30
2017,09,05,14,05,28.30
2017,09,05,14,06,28.30
2017,09,05,14,07,28.30
2017,09,05,14,08,28.30
2017,09,05,14,09,28.30
2017,09,05,14,10,28.30
2017,09,05,14,11,28.20
2017,09,05,14,12,28.20
2017,09,05,14,13,28.20
2017,09,05,14,14,28.20
2017,09,05,14,15,28.20
2017,09,05,14,16,28.10
2017,09,05,14,17,28.10
2017,09,05,14,18,28.10
2017,09,05,14,19,28.10
2017,09,05,14,20,28.00
2017,09,05,14,21,28.00
2017,09,05,14,22,28.00
2017,09,05,14,23,27.90
2017,09,05,14,24,27.90
2017,09,05,14,25,27.90
2017,09,05,14,26,27.90
2017,09,05,14,27,27.90
2017,09,05,14,28,27.90
2017,09,05,14,29,27.90
2017,09,05,14,30,27.90
2017,09,05,14,31,27.90
2017,09,05,14,32,27.90
2017,09,05,14,33,27.90
2017,09,05,14,34,27.90
2017,09,05,14,35,27.90
2017,09,05,14,36,27.90
2017,09,05,14,37,27.90
2017,09,05,14,38,27.80
2017,09,05,14,39,27.80
2017,09,05,14,40,27.80
2017,09,05,14,41,27.80
2017,09,05,14,42,27.80
2017,09,05,14,43,27.80
2017,09,05,14,44,27.80
2017,09,05,14,45,27.80
2017,09,05,14,46,27.80
2017,09,05,14,47,27.70
2017,09,05,14,48,27.70
2017,09,05,14,49,27.70
2017,09,05,14,50,27.70
2017,09,05,14,51,27.70
2017,09,05,14,52,27.70
2017,09,05,14,53,27.60
2017,09,05,14,54,27.60
2017,09,05,14,55,27.60
2017,09,05,14,56,27.60
2017,09,05,14,57,27.60
2017,09,05,14,58,27.60
2017,09,05,14,59,27.60
2017,09,05,15,00,27.60
2017,09,05,15,01,27.60
2017,09,05,15,02,27.50
2017,09,05,15,03,27.50
2017,09,05,15,04,27.50
2017,09,05,15,05,27.40
2017,09,05,15,06,27.40
2017,09,05,15,07,27.30
2017,09,05,15,08,27.30
2017,09,05,15,09,27.20
2017,09,05,15,10,27.10
2017,09,05,15,11,27.00
2017,09,05,15,12,26.90
2017,09,05,15,13,26.80
2017,09,05,15,14,26.80
2017,09,05,15,15,26.70
2017,09,05,15,16,26.70
2017,09,05,15,17,26.60
2017,09,05,15,18,26.60
2017,09,05,15,19,26.60
2017,09,05,15,20,26.60
2017,09,05,15,21,26.60
2017,09,05,15,22,26.60
2017,09,05,15,23,26.50
2017,09,05,15,24,26.40
2017,09,05,15,25,26.30
2017,09,05,15,26,26.20
2017,09,05,15,27,26.20
2017,09,05,15,28,26.10
2017,09,05,15,29,26.00
2017,09,05,15,30,25.90
2017,09,05,15,31,25.90
2017,09,05,15,32,25.80
2017,09,05,15,33,25.70
2017,09,05,15,34,25.60
2017,09,05,15,35,25.60
2017,09,05,15,36,25.50
2017,09,05,15,37,25.50
2017,09,05,15,38,25.40
2017,09,05,15,39,25.40
2017,09,05,15,40,25.40
2017,09,05,15,41,25.30
2017,09,05,15,42,25.30
2017,09,05,15,43,25.30
2017,09,05,15,44,25.30
2017,09,05,15,45,25.20
2017,09,05,15,46,25.20
2017,09,05,15,47,25.20
2017,09,05,15,48,25.20
2017,09,05,15,49,25.20
2017,09,05,15,50,25.20
2017,09,05,15,51,25.20
2017,09,05,15,52,25.20
2017,09,05,15,53,25.20
2017,09,05,15,54,25.20
2017,09,05,15,55,25.20
2017,09,05,15,56,25.20
2017,09,05,15,57,25.20
2017,09,05,15,58,25.20
2017,09,05,15,59,25.20
2017,09,05,16,00,25.30
2017,09,05,16,01,25.30
2017,09,05,16,02,25.30
2017,09,05,16,03,25.30
2017,09,05,16,04,25.30
2017,09,05,16,05,25.30
2017,09,05,16,06,25.30
2017,09,05,16,07,25.30
2017,09,05,16,08,25.30
2017,09,05,16,09,25.30
2017,09,05,16,10,25.30
2017,09,05,16,11,25.30
2017,09,05,16,12,25.30
2017,09,05,16,13,25.30
2017,09,05,16,14,25.40
2017,09,05,16,15,25.40
2017,09,05,16,16,25.40
2017,09,05,16,17,25.50
2017,09,05,16,18,25.50
2017,09,05,16,19,25.60
2017,09,05,16,20,25.60
2017,09,05,16,21,25.60
2017,09,05,16,22,25.70
2017,09,05,16,23,25.70
2017,09,05,16,24,25.70
2017,09,05,16,25,25.80
2017,09,05,16,26,25.80
2017,09,05,16,27,25.80
2017,09,05,16,28,25.80
2017,09,05,16,29,25.80
2017,09,05,16,30,25.80
2017,09,05,16,31,25.80
2017,09,05,16,32,25.80
2017,09,05,16,33,25.80
2017,09,05,16,34,25.80
2017,09,05,16,35,25.80
2017,09,05,16,36,25.80
2017,09,05,16,37,25.80
2017,09,05,16,38,25.80
2017,09,05,16,39,25.90
2017,09,05,16,40,25.90
2017,09,05,16,41,25.90
2017,09,05,16,42,25.90
2017,09,05,16,43,25.90
2017,09,05,16,44,26.00
2017,09,05,16,45,26.00
2017,09,05,16,46,26.00
2017,09,05,16,47,26.10
2017,09,05,16,48,26.10
2017,09,05,16,49,26.10
2017,09,05,16,50,26.10
2017,09,05,16,51,26.10
2017,09,05,16,52,26.20
2017,09,05,16,53,26.20
2017,09,05,16,54,26.20
2017,09,05,16,55,26.20
2017,09,05,16,56,26.20
2017,09,05,16,57,26.20
2017,09,05,16,58,26.10
2017,09,05,16,59,26.10
2017,09,05,17,00,26.20
2017,09,05,17,01,26.20
2017,09,05,17,02,26.20
2017,09,05,17,03,26.20
2017,09,05,17,04,26.20
2017,09,05,17,05,26.20
2017,09,05,17,06,26.10
2017,09,05,17,07,26.10
2017,09,05,17,08,26.10
2017,09,05,17,09,26.10
2017,09,05,17,10,26.10
2017,09,05,17,11,26.00
2017,09,05,17,12,25.90
2017,09,05,17,13,25.90
2017,09,05,17,14,25.90
2017,09,05,17,15,25.80
2017,09,05,17,16,25.80
2017,09,05,17,17,25.80
2017,09,05,17,18,25.80
2017,09,05,17,19,25.80
2017,09,05,17,20,25.70
2017,09,05,17,21,25.70
2017,09,05,17,22,25.70